Tracking 19634 objects as of 21-May-2019
HD Live streaming from Space Station
objects crossing your sky now

JCSAT 8

Track JCSAT 8 now!
JCSAT 8 is classified as:


NORAD ID: 27399
Int'l Code: 2002-015A
Perigee: 35,777.1 km
Apogee: 35,810.2 km
Inclination: 2.0 °
Period: 1,436.1 minutes
Semi major axis: 42164 km
RCS: 25.1486 m2 (large)
Launch date: March 29, 2002
Source: Japan (JPN)
Launch site: FRENCH GUIANA (FRGUI)

16 C-band, 16 Ku-band; coverage to Japan< East Asia, Australia and Hawaii.
aabbcc
Your satellite tracking list
Your tracking list is empty




NASA's NSSDC Master Catalog

Two Line Element Set (TLE):
1 27399U 02015A   19140.52618851 -.00000316  00000-0  00000+0 0  9999
2 27399   2.0094  88.1709 0003919 217.4516 257.7229  1.00272103 62703
Source of the keplerian elements: AFSPC